FW9066 Weather Reports


Display with metric or nautical units.
time (UTC)temp
F
wind
direction
speed
MPH
gust
MPH
rain 1hr
in
rain 24hr
in
rain mn
in
humidity
%
barometer
mb
20260506140004 61 127 0.0 1.0 0.01 0.02 0.02 92 1012.6
20260506134503 61 126 0.0 1.0 0.00 0.01 0.01 91 1012.0
20260506133007 61 126 0.0 0.0 0.00 0.01 0.01 92 1012.1
20260506131504 61 127 0.0 1.0 0.01 0.01 0.01 91 1011.9
20260506130006 61 127 0.0 1.0 0.01 0.01 0.01 91 1012.2
20260506124504 61 126 1.0 1.0 0.01 0.01 0.01 90 1012.4
20260506121502 63 127 1.0 2.0 0.00 0.00 0.00 83 1011.6
20260506120004 63 120 1.0 1.0 0.00 0.00 0.00 80 1011.9
20260506114502 63 137 0.0 1.0 0.00 0.00 0.00 78 1011.7
20260506110004 64 153 1.0 4.0 0.00 0.00 0.00 75 1011.6
20260506104502 64 126 1.0 3.0 0.00 0.00 0.00 75 1010.9
20260506103003 64 149 0.0 1.0 0.00 0.00 0.00 73 1011.2
20260506100004 64 132 1.0 1.0 0.00 0.00 0.00 71 1010.6
20260506093002 64 120 1.0 2.0 0.00 0.00 0.00 70 1010.6
20260506091501 65 142 1.0 5.0 0.00 0.00 0.00 69 1010.5
20260506090004 65 174 1.0 4.0 0.00 0.00 0.00 69 1010.4
20260506084502 65 127 1.0 3.0 0.00 0.00 0.00 69 1010.5
20260506083002 65 143 1.0 5.0 0.00 0.00 0.00 67 1010.6
20260506081500 65 143 1.0 2.0 0.00 0.00 0.00 66 1010.6
20260506071503 66 353 2.0 6.0 0.00 0.00 0.00 61 1010.8
20260506061458 64 120 1.0 3.0 0.00 0.00 0.00 61 1011.6
20260506044501 63 134 1.0 3.0 0.00 0.00 0.00 63 1011.9
20260506043001 63 212 1.0 4.0 0.00 0.00 0.00 63 1011.9
20260506041501 63 143 0.0 2.0 0.00 0.00 0.00 62 1012.4
20260506040004 63 136 1.0 2.0 0.00 0.00 0.00 63 1012.1
20260506034501 62 114 1.0 2.0 0.00 0.00 0.00 65 1012.4
20260506033001 62 266 0.0 2.0 0.00 0.00 0.00 63 1012.3
20260506031501 64 217 1.0 5.0 0.00 0.00 0.00 60 1012.2
20260506030004 63 140 1.0 5.0 0.00 0.00 0.00 61 1012.3
20260506023002 63 269 2.0 5.0 0.00 0.00 0.00 57 1012.4
20260506021501 64 24 2.0 6.0 0.00 0.00 0.00 57 1012.0
20260506020003 64 77 2.0 6.0 0.00 0.00 0.00 54 1011.9
20260506013005 65 119 1.0 2.0 0.00 0.00 0.00 51 1011.9
20260506011501 65 149 1.0 2.0 0.00 0.00 0.00 50 1011.6
20260506010003 66 140 1.0 2.0 0.00 0.00 0.00 49 1011.9
20260506004501 67 142 1.0 3.0 0.00 0.00 0.00 48 1011.9
20260506003001 67 148 2.0 6.0 0.00 0.00 0.00 48 1011.6
20260506001504 67 26 1.0 5.0 0.00 0.00 0.00 47 1011.6
20260506000003 68 33 1.0 5.0 0.00 0.00 0.00 46 1011.5
20260505233000 70 122 2.0 6.0 0.00 0.00 0.00 47 1011.1
20260505231500 70 256 1.0 7.0 0.00 0.00 0.00 44 1011.2
20260505230004 71 296 3.0 10.0 0.00 0.00 0.00 44 1011.5
20260505224500 71 344 3.0 17.0 0.00 0.00 0.00 41 1011.9
20260505223000 72 308 4.0 12.0 0.00 0.00 0.00 40 1011.5
20260505221500 73 319 4.0 8.0 0.00 0.00 0.00 39 1011.3
20260505213001 75 290 3.0 8.0 0.00 0.00 0.00 39 1011.1
20260505211459 74 273 5.0 14.0 0.00 0.00 0.00 38 1011.1
20260505210003 75 338 4.0 11.0 0.00 0.00 0.00 38 1010.9
20260505204500 75 348 4.0 9.0 0.00 0.00 0.00 39 1010.9
20260505202959 74 297 4.0 10.0 0.00 0.00 0.00 37 1011.2
20260505201500 74 296 4.0 11.0 0.00 0.00 0.00 36 1011.4
20260505200003 74 323 5.0 11.0 0.00 0.00 0.00 37 1011.4
20260505192959 73 339 4.0 11.0 0.00 0.00 0.00 38 1011.6
20260505191730 73 1 5.0 12.0 0.00 0.00 0.00 37 1012.2
20260505190003 73 288 4.0 12.0 0.00 0.00 0.00 35 1012.4
20260505184459 72 336 4.0 10.0 0.00 0.00 0.00 38 1012.6
20260505183000 72 281 4.0 10.0 0.00 0.00 0.00 37 1012.5
20260505181459 72 319 3.0 8.0 0.00 0.00 0.00 42 1012.7
20260505180003 72 38 4.0 9.0 0.00 0.00 0.00 41 1012.7
20260505174459 72 295 4.0 11.0 0.00 0.00 0.00 39 1012.9
20260505173000 72 320 3.0 10.0 0.00 0.00 0.00 41 1013.3
20260505171459 72 347 4.0 10.0 0.00 0.00 0.00 42 1013.8
20260505170002 71 322 3.0 11.0 0.00 0.00 0.00 40 1013.7
20260505164500 71 219 4.0 12.0 0.00 0.00 0.00 43 1013.9
20260505163000 70 69 4.0 14.0 0.00 0.00 0.00 40 1013.9
20260505161504 69 308 4.0 9.0 0.00 0.00 0.00 43 1013.8